Simultaneous Nadir Overpasses (SNOs) Predictions

Prediction of SNOs between GOES-15 and METOP-B Satellite Orbit:

Table of predicted SNOs for the next 14.0 days since TLE Epoch: 4/18/2025
Index Date Time (GOES-15) GOES-15 Lat,Lon METOP-B Lat,Lon Distance(km) Time Diff (sec)
1 04/19/2025 17:11:48 0.16, 61.37 -0.38, 59.07 263.17 80
2 04/20/2025 16:53:49 0.16, 61.39 0.74, 64.05 302.99 80
3 04/22/2025 05:10:02 -0.16, 61.44 0.30, 59.46 226.11 80
4 04/23/2025 04:52:03 -0.16, 61.46 -0.82, 64.44 340.12 80
5 04/24/2025 17:08:26 0.17, 61.44 -0.17, 59.81 185.01 80
6 04/25/2025 16:50:26 0.17, 61.46 0.89, 64.80 380.93 80
7 04/27/2025 05:06:38 -0.17, 61.52 0.13, 60.22 148.78 80
8 04/28/2025 04:48:40 -0.17, 61.54 -1.00, 65.20 416.78 80
9 04/29/2025 17:07:41 0.18, 61.54 -0.03, 60.58 109.43 80
10 04/30/2025 16:47:02 0.18, 61.56 1.04, 65.56 455.56 80
11 05/02/2025 05:03:14 -0.19, 61.64 -0.04, 60.98 75.42 80
